Location: Newark
(51.2625°N, 13.3939°E)
Time: 19:51:02
(UTC+00:00)

Transit 4A - All Passes

Search period start: 11 November 2019 00:00
Search period end: 21 November 2019 00:00
Orbit: 868 x 976 km, 66.8° (Epoch: 11 November)

Date Brightness Start Highest point End Pass type
(mag) Time Alt. Az. Time Alt. Az. Time Alt. Az.
11 Nov - 00:25:23 10° WSW 00:31:24 48° NW 00:37:18 10° NNE visible
11 Nov - 02:14:38 10° WNW 02:19:15 21° NNW 02:23:47 10° NNE visible
11 Nov - 04:03:35 10° NW 04:07:53 19° N 04:12:05 10° NE visible
11 Nov - 05:50:24 10° NNW 05:55:59 38° NE 06:01:26 10° ESE daylight
11 Nov - 07:36:49 10° NW 07:42:41 61° WSW 07:48:24 10° SSE daylight
11 Nov - 09:25:49 10° W 09:27:48 12° W 09:29:46 10° WSW daylight
11 Nov - 21:05:57 10° SE 21:08:55 14° ESE 21:11:52 10° ENE night (unlit)
11 Nov - 22:48:00 10° SSW 22:54:12 65° ESE 23:00:16 10° NE night (unlit)
12 Nov - 00:35:11 10° WSW 00:40:58 38° NW 00:46:36 10° NNE visible
12 Nov - 02:24:43 10° WNW 02:29:04 20° N 02:33:21 10° NE visible
12 Nov - 04:13:10 10° NNW 04:17:41 21° NNE 04:22:07 10° ENE visible
12 Nov - 05:59:44 10° NNW 06:05:32 48° NE 06:11:11 10° ESE daylight
12 Nov - 07:46:17 10° NW 07:51:54 44° WSW 07:57:22 10° S daylight
12 Nov - 21:13:32 10° SSE 21:17:54 20° ESE 21:22:13 10° ENE night (unlit)
12 Nov - 22:57:13 10° SSW 23:03:31 87° SE 23:09:40 10° NE night (unlit)
13 Nov - 00:45:07 10° W 00:50:35 31° NNW 00:55:57 10° NNE visible
13 Nov - 02:34:44 10° NW 02:38:54 18° N 02:43:01 10° NE visible
13 Nov - 04:22:39 10° NNW 04:27:28 24° NNE 04:32:10 10° ENE visible
13 Nov - 06:09:04 10° NW 06:15:01 62° NE 06:20:48 10° SE daylight
13 Nov - 07:55:54 10° NW 08:01:02 31° WSW 08:06:04 10° S daylight
13 Nov - 21:21:46 10° SSE 21:26:58 28° ESE 21:32:05 10° NE night (unlit)
13 Nov - 23:06:38 10° SW 23:12:54 72° NW 23:19:01 10° NE night (unlit)
14 Nov - 00:55:08 10° W 01:00:16 26° NNW 01:05:18 10° NNE visible
14 Nov - 02:44:38 10° NW 02:48:45 18° N 02:52:48 10° NE visible
14 Nov - 04:32:04 10° NNW 04:37:11 28° NNE 04:42:10 10° E visible
14 Nov - 06:18:25 10° NW 06:24:25 82° NE 06:30:16 10° SE daylight
14 Nov - 08:05:40 10° WNW 08:10:05 22° WSW 08:14:27 10° SSW daylight
14 Nov - 21:30:22 10° S 21:36:06 39° ESE 21:41:43 10° NE night (unlit)
14 Nov - 23:16:13 10° WSW 23:22:20 56° NW 23:28:20 10° NE visible
15 Nov - 01:05:13 10° WNW 01:10:01 23° NNW 01:14:44 10° NNE visible
15 Nov - 02:54:26 10° NW 02:58:36 19° N 03:02:42 10° NE visible
15 Nov - 04:41:27 10° NNW 04:46:50 33° NNE 04:52:07 10° E visible
15 Nov - 06:27:47 10° NW 06:33:45 75° WSW 06:39:33 10° SSE daylight
15 Nov - 08:15:50 10° WNW 08:19:05 15° WSW 08:22:19 10° SW daylight
15 Nov - 19:59:14 10° ESE 20:00:13 10° E 20:01:12 10° E night (unlit)
15 Nov - 21:39:13 10° SSW 21:45:17 53° ESE 21:51:14 10° NE night (unlit)
15 Nov - 23:25:56 10° WSW 23:31:51 44° NW 23:37:39 10° NNE visible
16 Nov - 01:15:18 10° WNW 01:19:48 20° NNW 01:24:12 10° NNE visible
16 Nov - 03:04:05 10° NNW 03:08:25 20° NNE 03:12:41 10° ENE visible
16 Nov - 04:50:47 10° NNW 04:56:26 41° NE 05:01:57 10° ESE visible
16 Nov - 06:37:14 10° NW 06:43:00 54° WSW 06:48:39 10° SSE daylight
16 Nov - 20:05:36 10° SE 20:09:10 16° ESE 20:12:41 10° ENE night (unlit)
16 Nov - 21:48:20 10° SSW 21:54:34 73° ESE 22:00:40 10° NE night (unlit)
16 Nov - 23:35:47 10° W 23:41:26 35° NW 23:46:58 10° NNE visible
17 Nov - 01:25:22 10° NW 01:29:37 19° N 01:33:48 10° NE visible
17 Nov - 03:13:37 10° NNW 03:18:13 22° NNE 03:22:44 10° ENE visible
17 Nov - 05:00:06 10° NNW 05:05:58 52° NE 05:11:39 10° ESE visible
17 Nov - 06:46:45 10° NW 06:52:12 39° WSW 06:57:32 10° S daylight
17 Nov - 20:13:29 10° SSE 20:18:10 23° ESE 20:22:48 10° ENE night (unlit)
17 Nov - 21:57:37 10° SW 22:03:54 86° NW 22:10:02 10° NE night (unlit)
17 Nov - 23:45:45 10° W 23:51:05 29° NNW 23:56:19 10° NNE visible
18 Nov - 01:35:21 10° NW 01:39:27 18° N 01:43:30 10° NE visible
18 Nov - 03:23:04 10° NNW 03:27:58 25° NNE 03:32:46 10° ENE visible
18 Nov - 05:09:26 10° NW 05:15:25 69° NE 05:21:13 10° SE visible
18 Nov - 06:56:24 10° NW 07:01:18 28° WSW 07:06:07 10° SSW daylight
18 Nov - 20:21:52 10° S 20:27:16 32° ESE 20:32:34 10° NE night (unlit)
18 Nov - 22:07:05 10° SW 22:13:18 66° NW 22:19:22 10° NE night (unlit)
18 Nov - 23:55:47 10° WNW 00:00:47 25° NNW 00:05:41 10° NNE visible
19 Nov - 01:45:13 10° NW 01:49:18 18° N 01:53:20 10° NE visible
19 Nov - 03:32:28 10° NNW 03:37:40 29° NNE 03:42:45 10° E visible
19 Nov - 05:18:48 10° NW 05:24:47 90° SW 05:30:38 10° SE visible
19 Nov - 07:06:17 10° WNW 07:10:21 19° WSW 07:14:21 10° SSW daylight
19 Nov - 20:30:34 10° S 20:36:25 43° ESE 20:42:09 10° NE night (unlit)
19 Nov - 22:16:43 10° WSW 22:22:46 51° NW 22:28:41 10° NNE night (unlit)
20 Nov - 00:05:53 10° WNW 00:10:32 22° NNW 00:15:07 10° NNE visible
20 Nov - 01:54:56 10° NW 01:59:08 19° N 02:03:17 10° NE visible
20 Nov - 03:41:50 10° NNW 03:47:18 36° NE 03:52:40 10° E visible
20 Nov - 05:28:12 10° NW 05:34:06 67° WSW 05:39:51 10° SSE visible
20 Nov - 07:16:42 10° WNW 07:19:18 13° WSW 07:21:54 10° SW daylight
20 Nov - 18:58:08 10° ESE 19:00:26 12° E 19:02:44 10° ENE night (unlit)
20 Nov - 20:39:30 10° SSW 20:45:38 60° ESE 20:51:38 10° NE night (unlit)
20 Nov - 22:26:30 10° WSW 22:32:18 40° NW 22:38:00 10° NNE night (unlit)
